EW4787 Weather Reports


Display with metric or nautical units.
time (UTC)temp
F
wind
direction
speed
MPH
gust
MPH
rain 1hr
in
rain 24hr
in
rain mn
in
humidity
%
barometer
mb
20260505164517 0 36 3.0 9.0 0.00 0.00 0.00 1006.4
20260505163019 0 347 3.0 10.0 0.00 0.00 0.00 1006.4
20260505161509 0 53 4.0 10.0 0.00 0.00 0.00 1006.4
20260505153056 0 15 0.0 9.0 0.00 0.00 0.00 1006.5
20260505151552 0 63 0.0 0.0 0.00 0.00 0.00 1006.5
20260505124507 0 63 3.0 12.0 0.00 0.00 0.00 1007.2
20260505123002 0 41 3.0 11.0 0.00 0.00 0.00 1007.2
20260505121501 0 21 3.0 12.0 0.00 0.00 0.00 1007.1
20260505120057 0 40 4.0 11.0 0.00 0.00 0.00 1007.1
20260505114552 0 355 3.0 10.0 0.00 0.00 0.00 1007.1
20260505113053 0 44 5.0 10.0 0.00 0.00 0.00 1007.3
20260505111545 0 65 0.0 8.0 0.00 0.00 0.00 1007.3
20260505101533 0 51 4.0 13.0 0.00 0.00 0.00 1007.5
20260505100024 0 336 3.0 9.0 0.00 0.00 0.00 1007.6
20260505094517 0 76 0.0 11.0 0.00 0.00 0.00 1007.7
20260505093022 0 53 3.0 10.0 0.00 0.00 0.00 1007.7
20260505091508 0 54 3.0 13.0 0.00 0.00 0.00 1007.8
20260505090003 0 32 4.0 16.0 0.00 0.00 0.00 1007.9
20260505084601 0 345 3.0 12.0 0.00 0.00 0.00 1008.0
20260505083200 0 333 2.0 9.0 0.00 0.00 0.00 1008.0
20260505081603 0 51 4.0 9.0 0.00 0.00 0.00 1008.1
20260505080113 0 21 4.0 12.0 0.00 0.00 0.00 1008.2
20260505074607 0 347 1.0 9.0 0.00 0.00 0.00 1008.0
20260505073056 0 355 2.0 9.0 0.00 0.00 0.00 1007.9
20260505071557 0 355 4.0 9.0 0.00 0.00 0.00 1008.0
20260505070050 0 52 1.0 11.0 0.00 0.00 0.00 1008.0
20260505064542 0 33 2.0 9.0 0.00 0.00 0.00 1008.2
20260505063048 0 333 3.0 5.0 0.00 0.00 0.00 1008.1
20260505061603 0 59 4.0 9.0 0.00 0.00 0.00 1008.0
20260505060030 0 61 2.0 6.0 0.00 0.00 0.00 1008.0
20260505054524 0 40 0.0 4.0 0.00 0.00 0.00 1008.1
20260505053021 0 5 0.0 0.0 0.00 0.00 0.00 1008.1
20260505051531 0 31 0.0 1.0 0.00 0.00 0.00 1008.3
20260505041601 0 334 1.0 4.0 0.00 0.00 0.00 1008.4
20260505040056 0 51 0.0 0.0 0.00 0.00 0.00 1008.3
20260505034551 0 53 0.0 0.0 0.00 0.00 0.00 1008.3
20260505033046 0 51 0.0 0.0 0.00 0.00 0.00 1008.4
20260505031546 0 51 0.0 3.0 0.00 0.00 0.00 1008.5
20260505030038 0 44 0.0 2.0 0.00 0.00 0.00 1008.5
20260505024533 0 36 2.0 5.0 0.00 0.00 0.00 1008.7
20260505023028 0 19 0.0 4.0 0.00 0.00 0.00 1008.7
20260505021524 0 19 0.0 3.0 0.00 0.00 0.00 1008.7
20260505020020 0 31 0.0 0.0 0.00 0.00 0.00 1008.7
20260505014514 0 28 0.0 1.0 0.00 0.00 0.00 1008.7
20260505013010 0 360 0.0 5.0 0.00 0.00 0.00 1008.9
20260505011507 0 5 1.0 3.0 0.00 0.00 0.00 1009.0
20260505010002 0 49 1.0 6.0 0.00 0.00 0.00 1009.1
20260505004557 0 54 1.0 4.0 0.00 0.00 0.00 1009.3
20260505003057 0 31 1.0 6.0 0.00 0.00 0.00 1009.4
20260505001549 0 69 0.0 4.0 0.00 0.00 0.00 1009.4
20260505000047 0 24 0.0 6.0 0.00 0.00 0.00 1009.5
20260504234539 0 20 0.0 0.0 0.00 0.00 0.00 1009.5
20260504233038 0 36 1.0 5.0 0.00 0.00 0.00 1009.4
20260504231530 0 54 0.0 4.0 0.00 0.00 0.00 1009.6
20260504230026 0 55 0.0 3.0 0.00 0.00 0.00 1009.6
20260504224624 0 44 0.0 6.0 0.00 0.00 0.00 1009.7
20260504223023 0 53 1.0 5.0 0.00 0.00 0.00 1009.7
20260504221522 0 12 1.0 5.0 0.00 0.00 0.00 1009.8
20260504220022 0 24 3.0 8.0 0.00 0.00 0.00 1009.4
20260504214520 0 355 1.0 4.0 0.00 0.00 0.00 1009.6
20260504213018 0 55 0.0 3.0 0.00 0.00 0.00 1009.7
20260504211511 0 11 0.0 8.0 0.00 0.00 0.00 1009.8
20260504210006 0 38 2.0 6.0 0.00 0.00 0.00 1009.7
20260504204503 0 9 2.0 4.0 0.00 0.00 0.00 1009.8
20260504203108 0 17 1.0 4.0 0.00 0.00 0.00 1009.7
20260504201554 0 38 1.0 4.0 0.00 0.00 0.00 1009.6
20260504200050 0 331 0.0 0.0 0.00 0.00 0.00 1009.5
20260504194555 0 40 0.0 0.0 0.00 0.00 0.00 1009.3
20260504193050 0 42 0.0 2.0 0.00 0.00 0.00 1009.3
20260504191548 0 59 0.0 4.0 0.00 0.00 0.00 1009.0
20260504190108 0 32 2.0 5.0 0.00 0.00 0.00 1009.0
20260504184546 0 65 1.0 4.0 0.00 0.00 0.00 1008.9
20260504183046 0 56 3.0 6.0 0.00 0.00 0.00 1008.8
20260504181549 0 32 2.0 5.0 0.00 0.00 0.00 1008.9
20260504180045 0 62 1.0 4.0 0.00 0.00 0.00 1009.0
20260504174544 0 40 1.0 4.0 0.00 0.00 0.00 1009.0
20260504173044 0 34 2.0 4.0 0.00 0.00 0.00 1009.0
20260504171540 0 344 1.0 6.0 0.00 0.00 0.00 1008.9